Tracking 18840 objects as of 19-November-2017
HD Live streaming from Space Station
objects crossing your sky now

ORBCOMM FM 20

Track ORBCOMM FM 20 now!
10-day predictions
ORBCOMM FM 20 is classified as:


NORAD ID: 25416
Int'l Code: 1998-046D
Perigee: 788.6 km
Apogee: 791.6 km
Inclination: 45.0 °
Period: 100.5 minutes
Semi major axis: 7161 km
RCS: 0.613 m2 (medium)
Launch date: August 2, 1998
Source: ORBCOMM (ORB)
Launch site: Pegasus launched from Eastern Range Air Space (ERAS)
aabbcc
Your satellite tracking list
Your tracking list is empty




NASA's NSSDC Master Catalog

Two Line Element Set (TLE):
1 25416U 98046D   17323.33106907 -.00000137  00000-0  12999-5 0  9997
2 25416  44.9973 250.2306 0002098 337.0819 175.4625 14.32635432  7239
Source of the keplerian elements: AFSPC